COSMOS 249 DEB, 3583

Orbit data source: Space-Track

COSMOS 249 DEB, 3583 is space debris in LEO originally from a launch on Sun, 20 Oct 1968 UTC launched from the Tyuratam Missile And Space Complex (TTMTR). Debris objects in space refer to the collection of defunct objects orbiting the Earth. Examples of debris include non-operational satellites, rocket bodies, and fragments generated from explosions, collisions, or faulty payload assembly.

Loading next visibility...
Identifier
3583, 1968-091R
Orbit
LEO
Country
Flag of CISCIS
Related business
Manufacturer
Unknown
Mission
Spacecraft
Bus & Motor
Unknown
Mass
Unknown
Launch date (UTC)
1968-10-20 (58 years ago)
Launch vehicle
Unknown
Launch site
Tyuratam Missile And Space Complex (TTMTR)
Object type
Payload
Rocket body
Debris
Shape & HBR
Unknown shape, 0.1 m
Radar Cross Section
Small (<0.1 m²)

Expand to show TLE details & history
Last TLE update: 14 hours ago

TLE from 14 hours ago
0 COSMOS 249 DEB
1  3583U 68091R   26133.29533888  .00000141  00000-0  30876-3 0  9997
2  3583  62.0799 247.3023 0703410 136.1134 229.7993 12.85878313679738
Epoch: 2026-05-13T07:05Z
TLE epoch observation values (Epoch: 2026-05-13T07:05:17.279Z)
Latitude
0.00004°
Longitude
-90.07709°
Altitude
1,689.76 km
Speed
6.86 km/s
True Right ascension
16h 29m 12s
True Declination
0° 00' 00"
Sunlit
Object was in full shadow at epoch
Visualization orbit readout
Latitude
Unknown
Longitude
Unknown
Altitude
Unknown
Speed
Unknown
Apparent Right ascension
Unknown
Apparent Declination
Unknown
Sunlit
N/A
Visualization observer readout
Local Sidereal Time
05:06:28
Azimuth
Unknown
Elevation
Unknown
Doppler factor
Unknown
Orbital elements
Apogee altitude
1,858.224 km
Perigee altitude
775.664 km
Semi-major axis
7,695.081 km
Eccentricity
0.07034
Inclination
62.0799°
RAAN
247.3023°
Arg. of periapsis
136.1134°
True anomaly
223.98401°
Mean anomaly
229.7993°
Eccentric anomaly
226.85856°
Mean motion
3.21531 °/min
Orbital period
111.96 mins
BSTAR
0.00030876
Loading maneuver chart data...
Computing Atmospheric mass density...

Documentation

Showing up to 5 results
|